• In Russia
  • List of Countries
  • For 7 days
  • Water Temperature
  • Weather Map
  • Weather Widgets
  • user-avatar
    Login

    Hourly Weather Kapan

    Today, 25 August, Sunday

    Time Temperature Precipitation Wind Pressure Humidity
    00:00 +23°C° 0 mm 2 mps 684 mmHg 46%
    01:00 +23°C° 0 mm 1 mps 684 mmHg 46%
    02:00 +23°C° 0 mm 1 mps 684 mmHg 45%
    03:00 +22°C° 0 mm 1 mps 684 mmHg 44%
    04:00 +22°C° 0 mm 1 mps 684 mmHg 44%
    05:00 +23°C° 0 mm 1 mps 685 mmHg 44%
    06:00 +23°C° 0 mm 1 mps 685 mmHg 43%
    07:00 +25°C° 0 mm 1 mps 685 mmHg 38%
    08:00 +28°C° 0 mm 2 mps 686 mmHg 33%
    09:00 +30°C° 0 mm 2 mps 686 mmHg 28%
    10:00 +31°C° 0 mm 3 mps 686 mmHg 27%
    11:00 +33°C° 0 mm 3 mps 686 mmHg 25%
    12:00 +35°C° 0 mm 4 mps 685 mmHg 24%
    13:00 +35°C° 0 mm 4 mps 685 mmHg 25%
    14:00 +35°C° 0 mm 4 mps 685 mmHg 26%
    15:00 +35°C° 0 mm 4 mps 684 mmHg 28%
    16:00 +34°C° 0 mm 4 mps 684 mmHg 30%
    17:00 +31°C° 0 mm 3 mps 684 mmHg 33%
    18:00 +30°C° 0 mm 3 mps 684 mmHg 35%
    19:00 +28°C° 0 mm 2 mps 684 mmHg 39%
    20:00 +26°C° 0 mm 2 mps 684 mmHg 42%
    21:00 +24°C° 0 mm 1 mps 684 mmHg 46%
    22:00 +24°C° 0 mm 1 mps 684 mmHg 46%
    23:00 +23°C° 0 mm 1 mps 684 mmHg 46%

    Tomorrow, 26 August, Monday

    Time Temperature Precipitation Wind Pressure Humidity
    00:00 +23°C° 0 mm 1 mps 684 mmHg 47%
    01:00 +23°C° 0 mm 1 mps 684 mmHg 47%
    02:00 +22°C° 0 mm 1 mps 684 mmHg 48%
    03:00 +22°C° 0 mm 1 mps 684 mmHg 49%
    04:00 +22°C° 0 mm 1 mps 684 mmHg 48%
    05:00 +22°C° 0 mm 1 mps 684 mmHg 48%
    06:00 +22°C° 0 mm 1 mps 685 mmHg 47%
    07:00 +24°C° 0 mm 1 mps 685 mmHg 41%
    08:00 +26°C° 0 mm 2 mps 686 mmHg 35%
    09:00 +29°C° 0 mm 3 mps 686 mmHg 28%
    10:00 +30°C° 0 mm 3 mps 686 mmHg 26%
    11:00 +32°C° 0 mm 4 mps 686 mmHg 24%
    12:00 +33°C° 0 mm 4 mps 686 mmHg 22%
    13:00 +33°C° 0 mm 4 mps 685 mmHg 23%
    14:00 +33°C° 0 mm 4 mps 685 mmHg 23%
    15:00 +33°C° 0 mm 5 mps 685 mmHg 23%
    16:00 +30°C° 0 mm 4 mps 684 mmHg 28%
    17:00 +29°C° 0 mm 4 mps 684 mmHg 32%
    18:00 +27°C° 0 mm 4 mps 684 mmHg 36%
    19:00 +25°C° 0 mm 3 mps 684 mmHg 45%
    20:00 +22°C° 0 mm 3 mps 685 mmHg 53%
    21:00 +19°C° 0 mm 2 mps 685 mmHg 62%
    22:00 +19°C° 0.1 mm 2 mps 685 mmHg 64%
    23:00 +19°C° 0.1 mm 1 mps 685 mmHg 66%

    Day after tomorrow, 27 August, Tuesday

    Time Temperature Precipitation Wind Pressure Humidity
    00:00 +18°C° 0.1 mm 1 mps 685 mmHg 68%
    01:00 +18°C° 0.1 mm 1 mps 685 mmHg 67%
    02:00 +18°C° 0.1 mm 1 mps 685 mmHg 66%
    03:00 +17°C° 0.1 mm 2 mps 685 mmHg 66%
    04:00 +18°C° 0 mm 1 mps 685 mmHg 63%
    05:00 +19°C° 0 mm 1 mps 685 mmHg 60%
    06:00 +19°C° 0 mm 1 mps 686 mmHg 58%
    07:00 +21°C° 0 mm 1 mps 686 mmHg 52%
    08:00 +23°C° 0 mm 2 mps 686 mmHg 46%
    09:00 +25°C° 0 mm 3 mps 686 mmHg 40%
    10:00 +26°C° 0 mm 3 mps 686 mmHg 37%
    11:00 +28°C° 0 mm 3 mps 686 mmHg 35%
    12:00 +29°C° 0 mm 4 mps 685 mmHg 33%
    13:00 +29°C° 0 mm 4 mps 685 mmHg 33%
    14:00 +30°C° 0 mm 4 mps 684 mmHg 33%
    15:00 +30°C° 0 mm 4 mps 684 mmHg 33%
    16:00 +29°C° 0 mm 4 mps 683 mmHg 37%
    17:00 +27°C° 0 mm 3 mps 683 mmHg 42%
    18:00 +26°C° 0 mm 3 mps 683 mmHg 47%
    19:00 +24°C° 0 mm 2 mps 683 mmHg 54%
    20:00 +21°C° 0 mm 2 mps 683 mmHg 62%
    21:00 +20°C° 0 mm 1 mps 683 mmHg 69%
    22:00 +20°C° 0 mm 1 mps 683 mmHg 70%
    23:00 +19°C° 0 mm 2 mps 683 mmHg 72%

    28 August, Wednesday

    Time Temperature Precipitation Wind Pressure Humidity
    00:00 +19°C° 0 mm 2 mps 683 mmHg 73%
    01:00 +20°C° 0 mm 1 mps 683 mmHg 72%
    02:00 +19°C° 0 mm 1 mps 683 mmHg 72%
    03:00 +19°C° 0 mm 1 mps 683 mmHg 71%
    04:00 +19°C° 0 mm 1 mps 683 mmHg 69%
    05:00 +19°C° 0 mm 1 mps 683 mmHg 67%
    06:00 +20°C° 0 mm 1 mps 683 mmHg 65%
    07:00 +22°C° 0 mm 1 mps 684 mmHg 57%
    08:00 +24°C° 0 mm 2 mps 684 mmHg 48%
    09:00 +26°C° 0 mm 2 mps 684 mmHg 40%
    10:00 +28°C° 0 mm 3 mps 684 mmHg 36%
    11:00 +29°C° 0 mm 3 mps 684 mmHg 31%
    12:00 +30°C° 0 mm 4 mps 684 mmHg 27%
    13:00 +32°C° 0 mm 4 mps 684 mmHg 27%
    14:00 +32°C° 0 mm 4 mps 683 mmHg 26%
    15:00 +32°C° 0 mm 4 mps 683 mmHg 25%
    16:00 +30°C° 0 mm 3 mps 683 mmHg 30%
    17:00 +28°C° 0 mm 3 mps 683 mmHg 34%
    18:00 +27°C° 0 mm 2 mps 683 mmHg 38%
    19:00 +25°C° 0 mm 2 mps 683 mmHg 44%
    20:00 +23°C° 0 mm 1 mps 683 mmHg 50%
    21:00 +21°C° 0 mm 1 mps 683 mmHg 55%
    22:00 +21°C° 0 mm 1 mps 683 mmHg 57%
    23:00 +21°C° 0 mm 1 mps 683 mmHg 58%

    29 August, Thursday

    Time Temperature Precipitation Wind Pressure Humidity
    00:00 +20°C° 0 mm 1 mps 684 mmHg 60%
    01:00 +20°C° 0 mm 1 mps 684 mmHg 60%
    02:00 +20°C° 0 mm 1 mps 684 mmHg 61%
    03:00 +20°C° 0 mm 1 mps 684 mmHg 61%
    04:00 +20°C° 0 mm 1 mps 684 mmHg 60%
    05:00 +20°C° 0 mm 1 mps 684 mmHg 59%
    06:00 +20°C° 0 mm 1 mps 684 mmHg 58%
    07:00 +23°C° 0 mm 1 mps 684 mmHg 50%
    08:00 +25°C° 0 mm 2 mps 685 mmHg 43%
    09:00 +28°C° 0 mm 2 mps 685 mmHg 36%
    10:00 +29°C° 0 mm 3 mps 685 mmHg 33%
    11:00 +30°C° 0 mm 3 mps 685 mmHg 30%
    12:00 +33°C° 0 mm 3 mps 684 mmHg 28%
    13:00 +33°C° 0 mm 4 mps 684 mmHg 29%
    14:00 +32°C° 0 mm 4 mps 683 mmHg 30%
    15:00 +32°C° 0 mm 4 mps 683 mmHg 32%
    16:00 +29°C° 0.2 mm 3 mps 683 mmHg 39%
    17:00 +28°C° 0.2 mm 2 mps 683 mmHg 45%
    18:00 +26°C° 0.2 mm 2 mps 683 mmHg 52%
    19:00 +24°C° 0 mm 1 mps 683 mmHg 57%
    20:00 +23°C° 0 mm 1 mps 683 mmHg 61%
    21:00 +22°C° 0 mm 1 mps 684 mmHg 65%
    22:00 +21°C° 0 mm 1 mps 683 mmHg 69%
    23:00 +20°C° 0 mm 1 mps 683 mmHg 72%

    30 August, Friday

    Time Temperature Precipitation Wind Pressure Humidity
    00:00 +19°C° 0 mm 1 mps 683 mmHg 76%
    01:00 +19°C° 0 mm 1 mps 683 mmHg 79%
    02:00 +19°C° 0 mm 1 mps 683 mmHg 83%
    03:00 +18°C° 0 mm 1 mps 682 mmHg 86%
    04:00 +18°C° 0.1 mm 1 mps 683 mmHg 85%
    05:00 +17°C° 0.1 mm 0 mps 683 mmHg 84%
    06:00 +17°C° 0.1 mm 0 mps 683 mmHg 83%
    07:00 +21°C° 0 mm 1 mps 683 mmHg 77%
    08:00 +22°C° 0 mm 1 mps 683 mmHg 70%
    09:00 +24°C° 0 mm 2 mps 683 mmHg 64%
    10:00 +24°C° 0.1 mm 3 mps 683 mmHg 63%
    11:00 +25°C° 0.1 mm 3 mps 683 mmHg 62%
    12:00 +25°C° 0.1 mm 4 mps 683 mmHg 61%
    13:00 +23°C° 0.5 mm 4 mps 682 mmHg 68%
    14:00 +22°C° 0.5 mm 4 mps 682 mmHg 75%
    15:00 +20°C° 0.5 mm 4 mps 681 mmHg 83%
    16:00 +20°C° 0.1 mm 3 mps 681 mmHg 85%
    17:00 +19°C° 0.1 mm 3 mps 681 mmHg 88%
    18:00 +18°C° 0.1 mm 3 mps 680 mmHg 90%
    19:00 +18°C° 0.1 mm 2 mps 681 mmHg 91%
    20:00 +18°C° 0.1 mm 2 mps 682 mmHg 91%
    21:00 +19°C° 0.1 mm 1 mps 682 mmHg 92%
    22:00 +18°C° 0 mm 2 mps 682 mmHg 93%
    23:00 +17°C° 0 mm 2 mps 682 mmHg 93%
    Show more